Home   Weather   Passo Fundo   Past weeks
Flag for Brazil

Past Weather in Passo Fundo, Rio Grande do Sul, Brazil — Yesterday and Last 2 Weeks

Now
72 °F

Passing clouds.


Feels Like: 74 °F
Forecast: 74 / 53 °F
Wind: 8 mph from Southwest

Location: Porto Alegre Aero-Porto

Current Time: Mar 25, 2019 at 2:54:44 am

Latest Report: Mar 25, 2019 at 2:00 am


Visibility: N/A

Pressure: 29.92 "Hg (27.65 "Hg at 680m altitude)

Humidity: 73%

Dew Point: 63 °F

Location of Passo FundoLocation

Past Weather in Passo Fundo — Graph

°F

Passo Fundo Temperature Yesterday

Maximum temperature yesterday: 84 °F (at 3:00 pm)
Minimum temperature yesterday: 63 °F (at 4:00 am)
Average temperature yesterday: 73 °F

High & Low Weather Summary for the Past Weeks

 TemperatureHumidityPressure
High86 °F (Mar 16, 2:00 pm)100% (Mar 19, 7:00 am)30.18 "Hg (Mar 19, 7:00 am)
Low55 °F (Mar 22, 6:00 am)45% (Mar 24, 4:00 pm)29.71 "Hg (Mar 18, 3:00 pm)
Average73 °F77%29.95 "Hg
* Reported Mar 10 2:00 am — Mar 25 1:00 am, Passo Fundo. Weather by CustomWeather, © 2019

Note: Actual official high and low records may vary slightly from our data, if they occured in-between our weather recording intervals... More about our weather records

Advertising

Passo Fundo Weather History for the Previous 24 Hours

Scroll right to see more
 ConditionsComfort  
Time TempWeatherWind HumidityBarometerVisibility
1:00 am
Mon, Mar 25
68 °FClear.1 mph78%29.89 "Hg10 mi
12:00 am70 °FClear.2 mph73%29.92 "Hg10 mi
11:00 pm
Sun, Mar 24
70 °FPassing clouds.3 mph73%29.92 "HgN/A
10:00 pm72 °FClear.2 mph69%29.92 "Hg10 mi
9:00 pm75 °FPassing clouds.7 mph61%29.92 "HgN/A
8:00 pm75 °FClear.7 mph61%29.89 "Hg10 mi
7:00 pm79 °FClear.8 mph54%29.89 "Hg10 mi
6:00 pm82 °FSunny.10 mph45%29.89 "Hg10 mi
5:00 pm84 °FSunny.14 mph45%29.89 "Hg10 mi
4:00 pm84 °FPassing clouds.15 mph45%29.89 "HgN/A
3:00 pm84 °FPassing clouds.15 mph48%29.89 "HgN/A
2:00 pm82 °FPassing clouds.12 mph62%29.92 "HgN/A
1:00 pm81 °FPassing clouds.9 mph70%29.95 "HgN/A
12:00 pm79 °FPassing clouds.7 mph74%29.95 "HgN/A
11:00 am75 °FPassing clouds.7 mph83%29.98 "HgN/A
10:00 am72 °FPassing clouds.6 mph88%30.01 "HgN/A
9:00 am68 °FPassing clouds.5 mph94%30.01 "HgN/A
8:00 am66 °FClear.5 mph88%30.01 "Hg6 mi
7:00 am64 °FClear.3 mph88%29.98 "Hg6 mi
6:00 am63 °FClear.2 mph88%29.98 "Hg5 mi
5:00 am63 °FClear.1 mph88%29.95 "Hg4 mi
4:00 am63 °FClear.2 mph88%29.95 "Hg10 mi
3:00 am64 °FClear.2 mph83%29.95 "Hg10 mi
2:00 am66 °FClear.5 mph83%29.98 "Hg10 mi
Weather by CustomWeather, © 2019

See weather overview